| time (UTC) | temp F | wind direction | speed MPH | gust MPH | rain 1hr in | rain 24hr in | rain mn in | humidity % | barometer mb |
| 20260506050603 | 49 | 57 | 0.0 | 4.0 | 0.00 | 0.00 | 0.00 | 86 | 1007.2 |
| 20260506044522 | 49 | 57 | 1.0 | 3.0 | 0.00 | 0.00 | 0.00 | 86 | 1007.4 |
| 20260506043506 | 49 | 57 | 1.0 | 5.0 | 0.00 | 0.00 | 0.00 | 86 | 1007.3 |
| 20260506042458 | 49 | 57 | 1.0 | 4.0 | 0.00 | 0.00 | 0.00 | 87 | 1007.3 |
| 20260506041507 | 49 | 57 | 0.0 | 4.0 | 0.00 | 0.00 | 0.00 | 86 | 1007.4 |
| 20260506040452 | 49 | 57 | 0.0 | 3.0 | 0.00 | 0.00 | 0.00 | 87 | 1007.4 |
| 20260506035421 | 49 | 57 | 0.0 | 3.0 | 0.00 | 0.00 | 0.00 | 87 | 1007.4 |
| 20260506034346 | 49 | 57 | 0.0 | 2.0 | 0.00 | 0.00 | 0.00 | 87 | 1007.5 |
| 20260506033341 | 49 | 57 | 0.0 | 3.0 | 0.00 | 0.00 | 0.00 | 86 | 1007.5 |
| 20260506032332 | 49 | 57 | 0.0 | 3.0 | 0.00 | 0.00 | 0.00 | 87 | 1007.6 |
| 20260506031323 | 49 | 57 | 0.0 | 2.0 | 0.00 | 0.00 | 0.00 | 87 | 1007.7 |
| 20260506030313 | 49 | 57 | 0.0 | 2.0 | 0.00 | 0.00 | 0.00 | 87 | 1007.8 |
| 20260506030226 | 49 | 57 | 1.0 | 5.0 | 0.00 | 0.00 | 0.00 | 87 | 1007.9 |
| 20260506024234 | 49 | 57 | 0.0 | 5.0 | 0.00 | 0.00 | 0.00 | 87 | 1008.0 |
| 20260506023231 | 49 | 57 | 1.0 | 4.0 | 0.00 | 0.00 | 0.00 | 88 | 1008.0 |
| 20260506022232 | 49 | 57 | 0.0 | 4.0 | 0.00 | 0.00 | 0.00 | 88 | 1008.0 |
| 20260506021213 | 48 | 57 | 1.0 | 5.0 | 0.00 | 0.00 | 0.00 | 89 | 1008.1 |
| 20260506020152 | 48 | 57 | 1.0 | 4.0 | 0.00 | 0.00 | 0.00 | 89 | 1008.1 |
| 20260506015146 | 48 | 57 | 0.0 | 3.0 | 0.00 | 0.00 | 0.00 | 90 | 1008.3 |
| 20260506014134 | 48 | 57 | 0.0 | 3.0 | 0.00 | 0.00 | 0.00 | 90 | 1008.3 |
| 20260506013101 | 48 | 57 | 1.0 | 4.0 | 0.00 | 0.00 | 0.00 | 90 | 1008.4 |
| 20260506012041 | 48 | 57 | 0.0 | 3.0 | 0.00 | 0.00 | 0.00 | 90 | 1008.3 |
| 20260506011027 | 48 | 57 | 1.0 | 5.0 | 0.00 | 0.00 | 0.00 | 90 | 1008.5 |
| 20260506010011 | 48 | 57 | 2.0 | 5.0 | 0.00 | 0.00 | 0.00 | 90 | 1008.6 |
| 20260506005000 | 48 | 59 | 1.0 | 5.0 | 0.00 | 0.00 | 0.00 | 89 | 1008.7 |
| 20260506004000 | 48 | 59 | 1.0 | 5.0 | 0.00 | 0.00 | 0.00 | 89 | 1008.8 |
| 20260506002957 | 48 | 59 | 1.0 | 5.0 | 0.00 | 0.00 | 0.00 | 89 | 1008.8 |
| 20260506001957 | 48 | 59 | 1.0 | 6.0 | 0.00 | 0.00 | 0.00 | 88 | 1008.9 |
| 20260506000948 | 48 | 59 | 2.0 | 6.0 | 0.00 | 0.00 | 0.00 | 88 | 1008.9 |
| 20260506000408 | 49 | 59 | 2.0 | 6.0 | 0.00 | 0.00 | 0.00 | 86 | 1009.1 |
| 20260506000032 | 48 | 59 | 1.0 | 6.0 | 0.00 | 0.00 | 0.00 | 87 | 1009.0 |
| 20260505233933 | 49 | 61 | 2.0 | 8.0 | 0.00 | 0.00 | 0.00 | 85 | 1009.2 |
| 20260505232908 | 49 | 61 | 2.0 | 7.0 | 0.00 | 0.00 | 0.00 | 84 | 1009.2 |
| 20260505232243 | 50 | 96 | 1.0 | 5.0 | 0.00 | 0.00 | 0.00 | 83 | 1009.2 |
| 20260505231914 | 49 | 61 | 3.0 | 9.0 | 0.00 | 0.00 | 0.00 | 83 | 1009.1 |
| 20260505225800 | 50 | 98 | 2.0 | 9.0 | 0.00 | 0.00 | 0.00 | 83 | 1009.3 |
| 20260505225201 | 50 | 56 | 1.0 | 5.0 | 0.00 | 0.00 | 0.00 | 82 | 1009.4 |
| 20260505224848 | 50 | 56 | 1.0 | 8.0 | 0.00 | 0.00 | 0.00 | 82 | 1009.3 |
| 20260505222802 | 50 | 56 | 1.0 | 6.0 | 0.00 | 0.00 | 0.00 | 82 | 1009.5 |
| 20260505221731 | 50 | 53 | 1.0 | 7.0 | 0.00 | 0.00 | 0.00 | 82 | 1009.5 |
| 20260505220740 | 50 | 49 | 1.0 | 5.0 | 0.00 | 0.00 | 0.00 | 82 | 1009.5 |
| 20260505220218 | 50 | 49 | 1.0 | 9.0 | 0.00 | 0.00 | 0.00 | 82 | 1009.5 |
| 20260505220056 | 50 | 45 | 1.0 | 5.0 | 0.00 | 0.00 | 0.00 | 82 | 1009.5 |
| 20260505215842 | 50 | 51 | 2.0 | 9.0 | 0.00 | 0.00 | 0.00 | 82 | 1009.4 |
| 20260505212657 | 50 | 49 | 1.0 | 7.0 | 0.00 | 0.00 | 0.00 | 82 | 1009.5 |
| 20260505211630 | 50 | 52 | 2.0 | 9.0 | 0.00 | 0.00 | 0.00 | 81 | 1009.6 |
| 20260505210625 | 50 | 61 | 2.0 | 8.0 | 0.00 | 0.00 | 0.00 | 81 | 1009.6 |
| 20260505205622 | 50 | 55 | 1.0 | 5.0 | 0.00 | 0.00 | 0.00 | 81 | 1009.8 |
| 20260505204622 | 51 | 55 | 2.0 | 6.0 | 0.00 | 0.00 | 0.00 | 81 | 1009.8 |
| 20260505203612 | 51 | 55 | 2.0 | 7.0 | 0.00 | 0.00 | 0.00 | 81 | 1009.9 |
| 20260505202922 | 51 | 66 | 1.0 | 6.0 | 0.00 | 0.00 | 0.00 | 80 | 1009.8 |
| 20260505202555 | 51 | 61 | 1.0 | 4.0 | 0.00 | 0.00 | 0.00 | 81 | 1009.8 |
| 20260505200456 | 51 | 66 | 1.0 | 5.0 | 0.00 | 0.00 | 0.00 | 80 | 1009.8 |
| 20260505195423 | 51 | 66 | 2.0 | 7.0 | 0.00 | 0.00 | 0.00 | 79 | 1009.8 |
| 20260505195322 | 51 | 66 | 2.0 | 7.0 | 0.00 | 0.00 | 0.00 | 79 | 1009.7 |
| 20260505193632 | 52 | 47 | 1.0 | 6.0 | 0.00 | 0.00 | 0.00 | 79 | 1009.5 |
| 20260505193336 | 51 | 49 | 2.0 | 6.0 | 0.00 | 0.00 | 0.00 | 79 | 1009.7 |
| 20260505193317 | 52 | 47 | 2.0 | 6.0 | 0.00 | 0.00 | 0.00 | 79 | 1009.6 |
| 20260505190246 | 52 | 46 | 2.0 | 7.0 | 0.00 | 0.00 | 0.00 | 79 | 1009.4 |
| 20260505185621 | 52 | 57 | 2.0 | 7.0 | 0.00 | 0.00 | 0.00 | 79 | 1009.2 |
| 20260505185259 | 52 | 53 | 2.0 | 6.0 | 0.00 | 0.00 | 0.00 | 79 | 1009.3 |
| 20260505183208 | 52 | 57 | 2.0 | 5.0 | 0.00 | 0.00 | 0.00 | 79 | 1009.2 |
| 20260505182143 | 53 | 57 | 2.0 | 6.0 | 0.00 | 0.00 | 0.00 | 79 | 1009.2 |
| 20260505181112 | 53 | 57 | 1.0 | 6.0 | 0.00 | 0.00 | 0.00 | 79 | 1009.2 |
| 20260505180438 | 53 | 59 | 2.0 | 8.0 | 0.00 | 0.00 | 0.00 | 78 | 1009.2 |
| 20260505180110 | 53 | 58 | 2.0 | 6.0 | 0.00 | 0.00 | 0.00 | 79 | 1009.1 |
| 20260505174036 | 53 | 59 | 1.0 | 4.0 | 0.00 | 0.00 | 0.00 | 78 | 1009.2 |
| 20260505173039 | 53 | 59 | 1.0 | 7.0 | 0.00 | 0.00 | 0.00 | 78 | 1009.3 |
| 20260505172017 | 53 | 60 | 1.0 | 4.0 | 0.00 | 0.00 | 0.00 | 78 | 1009.3 |
| 20260505171349 | 53 | 61 | 2.0 | 5.0 | 0.00 | 0.00 | 0.00 | 77 | 1009.5 |
| 20260505171016 | 53 | 60 | 2.0 | 6.0 | 0.00 | 0.00 | 0.00 | 78 | 1009.5 |
| 20260505164920 | 54 | 62 | 1.0 | 6.0 | 0.00 | 0.00 | 0.00 | 77 | 1009.5 |
| 20260505163909 | 54 | 63 | 1.0 | 5.0 | 0.00 | 0.00 | 0.00 | 77 | 1009.5 |
| 20260505162838 | 54 | 63 | 1.0 | 10.0 | 0.00 | 0.00 | 0.00 | 76 | 1009.5 |
| 20260505161815 | 54 | 68 | 2.0 | 8.0 | 0.00 | 0.00 | 0.00 | 75 | 1009.6 |
| 20260505160815 | 55 | 68 | 2.0 | 6.0 | 0.00 | 0.00 | 0.00 | 74 | 1009.4 |
| 20260505152654 | 56 | 76 | 3.0 | 7.0 | 0.00 | 0.00 | 0.00 | 71 | 1009.7 |
| 20260505151621 | 57 | 95 | 3.0 | 9.0 | 0.00 | 0.00 | 0.00 | 71 | 1009.6 |
| 20260505150551 | 57 | 73 | 3.0 | 9.0 | 0.00 | 0.00 | 0.00 | 70 | 1009.5 |
| 20260505140459 | 57 | 111 | 2.0 | 8.0 | 0.00 | 0.00 | 0.00 | 71 | 1009.6 |
| 20260505124305 | 55 | 63 | 1.0 | 7.0 | 0.00 | 0.00 | 0.00 | 76 | 1010.5 |
| 20260505123255 | 54 | 63 | 1.0 | 5.0 | 0.00 | 0.00 | 0.00 | 77 | 1010.4 |
| 20260505122247 | 54 | 62 | 1.0 | 4.0 | 0.00 | 0.00 | 0.00 | 78 | 1010.6 |
| 20260505122200 | 53 | 62 | 1.0 | 6.0 | 0.00 | 0.00 | 0.00 | 78 | 1010.6 |
| 20260505120240 | 53 | 61 | 1.0 | 5.0 | 0.00 | 0.00 | 0.00 | 79 | 1010.6 |
| 20260505115241 | 53 | 61 | 1.0 | 6.0 | 0.00 | 0.00 | 0.00 | 80 | 1010.6 |
| 20260505114242 | 53 | 62 | 1.0 | 7.0 | 0.00 | 0.00 | 0.00 | 81 | 1010.5 |
| 20260505113209 | 53 | 63 | 1.0 | 5.0 | 0.00 | 0.00 | 0.00 | 81 | 1010.7 |
| 20260505112219 | 53 | 63 | 1.0 | 5.0 | 0.00 | 0.00 | 0.00 | 82 | 1010.7 |
| 20260505111206 | 52 | 63 | 2.0 | 6.0 | 0.00 | 0.00 | 0.00 | 83 | 1010.6 |
| 20260505110155 | 52 | 66 | 2.0 | 5.0 | 0.00 | 0.00 | 0.00 | 82 | 1010.7 |
| 20260505101042 | 51 | 75 | 1.0 | 7.0 | 0.00 | 0.00 | 0.00 | 85 | 1011.2 |
| 20260505100012 | 51 | 78 | 2.0 | 7.0 | 0.00 | 0.00 | 0.00 | 86 | 1011.2 |
| 20260505095012 | 50 | 93 | 2.0 | 6.0 | 0.00 | 0.00 | 0.00 | 87 | 1011.3 |
| 20260505094009 | 50 | 101 | 2.0 | 6.0 | 0.00 | 0.00 | 0.00 | 87 | 1011.4 |
| 20260505093015 | 50 | 56 | 1.0 | 5.0 | 0.00 | 0.00 | 0.00 | 87 | 1011.5 |
| 20260505091948 | 50 | 56 | 2.0 | 5.0 | 0.00 | 0.00 | 0.00 | 87 | 1011.5 |
| 20260505091425 | 50 | 56 | 1.0 | 6.0 | 0.00 | 0.00 | 0.00 | 87 | 1011.4 |
| 20260505085936 | 50 | 57 | 2.0 | 8.0 | 0.00 | 0.00 | 0.00 | 88 | 1011.3 |
| 20260505084921 | 50 | 53 | 2.0 | 5.0 | 0.00 | 0.00 | 0.00 | 89 | 1011.4 |
| 20260505083922 | 49 | 53 | 2.0 | 7.0 | 0.00 | 0.00 | 0.00 | 90 | 1011.4 |
| 20260505082856 | 49 | 52 | 2.0 | 7.0 | 0.00 | 0.00 | 0.00 | 91 | 1011.4 |
| 20260505081838 | 49 | 51 | 1.0 | 6.0 | 0.00 | 0.00 | 0.00 | 92 | 1011.4 |
| 20260505081151 | 49 | 51 | 1.0 | 4.0 | 0.00 | 0.00 | 0.00 | 92 | 1011.3 |
| 20260505080829 | 49 | 51 | 1.0 | 4.0 | 0.00 | 0.00 | 0.00 | 92 | 1011.4 |
| 20260505074733 | 48 | 51 | 1.0 | 5.0 | 0.00 | 0.00 | 0.00 | 92 | 1011.5 |
| 20260505073731 | 48 | 51 | 1.0 | 3.0 | 0.00 | 0.00 | 0.00 | 92 | 1011.6 |
| 20260505072730 | 48 | 51 | 1.0 | 4.0 | 0.00 | 0.00 | 0.00 | 92 | 1011.5 |
| 20260505071732 | 48 | 51 | 1.0 | 5.0 | 0.00 | 0.00 | 0.00 | 92 | 1011.7 |
| 20260505070716 | 48 | 51 | 1.0 | 6.0 | 0.00 | 0.00 | 0.00 | 92 | 1011.8 |
| 20260505065641 | 48 | 51 | 1.0 | 4.0 | 0.00 | 0.00 | 0.00 | 91 | 1012.1 |
| 20260505064625 | 48 | 51 | 1.0 | 6.0 | 0.00 | 0.00 | 0.00 | 91 | 1012.1 |
| 20260505063608 | 48 | 51 | 1.0 | 6.0 | 0.00 | 0.00 | 0.00 | 91 | 1011.9 |
| 20260505063004 | 48 | 51 | 1.0 | 6.0 | 0.00 | 0.00 | 0.00 | 91 | 1011.8 |
| 20260505062630 | 48 | 51 | 1.0 | 4.0 | 0.00 | 0.00 | 0.00 | 91 | 1011.9 |
| 20260505060531 | 48 | 52 | 1.0 | 4.0 | 0.00 | 0.00 | 0.00 | 91 | 1011.7 |
| 20260505055924 | 48 | 52 | 1.0 | 4.0 | 0.00 | 0.00 | 0.00 | 91 | 1011.5 |
| 20260505055556 | 48 | 52 | 1.0 | 6.0 | 0.00 | 0.00 | 0.00 | 91 | 1011.6 |